Location: Newark
(47.5000°N, 4.6167°E)
Time: 23:51:18
(UTC+00:00)

ISS - Pass Details

Date: 23 May 2021
Orbit: 417 x 422 km, 51.6° (Epoch: 14 June)

Event Time Altitude Azimuth Distance (km) Brightness Sun altitude
Rises 20:08:23 0° 278° (W) 2,363 1.1 -7.1°
Reaches altitude 10° 20:10:34 10° 286° (WNW) 1,501 0.2 -7.4°
Maximum altitude 20:13:46 39° 357° (N) 647 -2.3 -7.8°
Drops below altitude 10° 20:16:58 10° 68° (ENE) 1,504 -1.2 -8.2°
Sets 20:19:09 0° 77° (ENE) 2,370 -0.3 -8.4°
